TimeCET,TemperatureF,Dew PointF,Humidity,Sea Level PressureIn,VisibilityMPH,Wind Direction,Wind SpeedMPH,Gust SpeedMPH,PrecipitationIn,Events,Conditions,WindDirDegrees,DateUTC
12:00 AM,32,32,100,,2,East,2.2,,,,,80,2014-03-01 23:00:00
12:20 AM,32.0,32.0,100,29.68,2.5,ENE,2.3,-,N/A,,Overcast,60,2014-03-01 23:20:00
12:50 AM,32.0,32.0,100,29.68,-9999.0,East,3.5,-,N/A,,Mostly Cloudy,80,2014-03-01 23:50:00
1:00 AM,32,32,100,,2,East,2.2,,,,Mist,80,2014-03-02 00:00:00
1:20 AM,32.0,32.0,100,29.68,-9999.0,ENE,2.3,-,N/A,,Mostly Cloudy,60,2014-03-02 00:20:00
1:50 AM,32.0,32.0,100,29.68,2.8,ENE,2.3,-,N/A,,Overcast,60,2014-03-02 00:50:00
2:00 AM,32,32,100,,1,ENE,2.2,,,,,70,2014-03-02 01:00:00
2:20 AM,32.0,32.0,100,29.68,1.4,NE,3.5,-,N/A,Rain-Snow,Light Rain,50,2014-03-02 01:20:00
2:50 AM,32.0,32.0,100,29.68,1.9,NNE,2.3,-,N/A,Rain-Snow,Light Rain,30,2014-03-02 01:50:00
3:00 AM,32,32,100,,2,ENE,2.2,,,,,70,2014-03-02 02:00:00
3:20 AM,32.0,32.0,100,29.68,2.8,NE,2.3,-,N/A,Snow,Light Snow,50,2014-03-02 02:20:00
3:50 AM,32.0,32.0,100,29.65,3.1,Variable,2.3,-,N/A,Rain-Snow,Light Rain,0,2014-03-02 02:50:00
4:00 AM,32,32,100,,3,East,2.2,,,Snow,Light Snow,90,2014-03-02 03:00:00
4:20 AM,32.0,32.0,100,29.65,3.7,East,3.5,-,N/A,Rain-Snow,Light Rain,90,2014-03-02 03:20:00
4:50 AM,32.0,32.0,100,29.65,4.3,East,3.5,-,N/A,Rain,Light Rain,80,2014-03-02 03:50:00
5:00 AM,33,33,97,,2,ENE,2.2,,,,,70,2014-03-02 04:00:00
5:20 AM,32.0,32.0,100,29.65,1.7,ENE,3.5,-,N/A,,Overcast,70,2014-03-02 04:20:00
5:50 AM,32.0,32.0,100,29.65,-9999.0,Variable,2.3,-,N/A,Rain-Snow,Light Rain,0,2014-03-02 04:50:00
6:00 AM,33,33,97,,1,East,2.2,,,,,90,2014-03-02 05:00:00
6:20 AM,32.0,32.0,100,29.65,-9999.0,East,4.6,16.1,N/A,Rain-Snow,Light Rain,100,2014-03-02 05:20:00
6:50 AM,32.0,32.0,100,29.65,-9999.0,East,3.5,-,N/A,Rain-Snow,Light Rain,100,2014-03-02 05:50:00
7:00 AM,33,33,98,,2,ESE,2.2,,,Snow,Light Snow,110,2014-03-02 06:00:00
7:20 AM,32.0,32.0,100,29.65,2.5,ESE,4.6,-,N/A,Rain-Snow,Light Rain,120,2014-03-02 06:20:00
7:50 AM,32.0,32.0,100,29.65,2.2,ESE,4.6,-,N/A,Rain-Snow,Light Rain,120,2014-03-02 06:50:00
8:00 AM,33,33,98,,3,ESE,4.5,,,,,110,2014-03-02 07:00:00
8:20 AM,32.0,32.0,100,29.65,2.5,ESE,4.6,-,N/A,Rain-Snow,Light Rain,110,2014-03-02 07:20:00
8:50 AM,32.0,32.0,100,29.65,3.7,ESE,3.5,-,N/A,Rain-Snow,Light Rain,110,2014-03-02 07:50:00
9:00 AM,33,33,99,,5,ESE,4.5,,,,,110,2014-03-02 08:00:00
9:20 AM,33.8,33.8,100,29.65,5.0,ESE,5.8,-,N/A,Rain-Snow,Light Rain,110,2014-03-02 08:20:00
9:50 AM,33.8,33.8,100,29.65,5.0,ESE,5.8,-,N/A,Rain-Snow,Light Rain,110,2014-03-02 08:50:00
10:00 AM,33,33,100,,5,SE,4.5,,,Snow,Light Snow,130,2014-03-02 09:00:00
10:20 AM,33.8,33.8,100,29.62,5.0,ESE,4.6,-,N/A,Rain-Snow,Light Rain,120,2014-03-02 09:20:00
10:50 AM,33.8,32.0,93,29.62,5.6,ESE,5.8,-,N/A,Rain-Snow,Light Rain,120,2014-03-02 09:50:00
11:00 AM,33,33,100,,6,ESE,4.5,,,,,110,2014-03-02 10:00:00
11:20 AM,33.8,32.0,93,29.62,5.0,ESE,9.2,-,N/A,Rain-Snow,Light Rain,110,2014-03-02 10:20:00
11:50 AM,33.8,32.0,93,29.62,3.7,ESE,9.2,-,N/A,,Overcast,110,2014-03-02 10:50:00
12:00 PM,33,33,100,,6,SE,6.7,,,,,130,2014-03-02 11:00:00
12:20 PM,33.8,32.0,93,29.59,5.0,ESE,9.2,-,N/A,,Overcast,110,2014-03-02 11:20:00
12:50 PM,33.8,32.0,93,29.59,5.0,ESE,11.5,-,N/A,,Overcast,120,2014-03-02 11:50:00
1:00 PM,33,33,100,,5,ESE,6.7,,,,Mist,120,2014-03-02 12:00:00
1:20 PM,33.8,32.0,93,29.59,5.0,ESE,10.4,-,N/A,,Overcast,120,2014-03-02 12:20:00
1:50 PM,32.0,32.0,100,29.56,4.3,ESE,9.2,-,N/A,Rain-Snow,Light Rain,120,2014-03-02 12:50:00
2:00 PM,33,33,97,,3,ESE,8.9,,,,,110,2014-03-02 13:00:00
2:20 PM,32.0,32.0,100,29.56,1.5,ESE,8.1,-,N/A,Snow,Light Snow,110,2014-03-02 13:20:00
2:50 PM,32.0,32.0,100,29.56,0.6,East,6.9,-,N/A,Snow,Snow,100,2014-03-02 13:50:00
3:00 PM,32,32,100,,1,East,6.7,,,,,90,2014-03-02 14:00:00
3:20 PM,32.0,32.0,100,29.53,0.6,ENE,5.8,-,N/A,Snow,Snow,70,2014-03-02 14:20:00
3:50 PM,32.0,32.0,100,29.53,0.8,East,5.8,-,N/A,Snow,Snow,100,2014-03-02 14:50:00
4:00 PM,32,32,100,,1,East,4.5,,,Snow,Snow,100,2014-03-02 15:00:00
4:20 PM,32.0,32.0,100,29.53,0.8,East,4.6,-,N/A,Snow,Light Snow,90,2014-03-02 15:20:00
4:50 PM,32.0,32.0,100,29.53,0.8,ESE,4.6,-,N/A,Snow,Light Snow,110,2014-03-02 15:50:00
5:00 PM,32,32,100,,1,SE,2.2,,,,,130,2014-03-02 16:00:00
5:20 PM,32.0,32.0,100,29.53,1.1,ESE,4.6,-,N/A,Snow,Light Snow,120,2014-03-02 16:20:00
5:50 PM,32.0,32.0,100,29.50,1.2,Variable,4.6,-,N/A,Snow,Light Snow,0,2014-03-02 16:50:00
6:00 PM,32,32,100,,1,SE,2.2,,,,,130,2014-03-02 17:00:00
6:20 PM,32.0,32.0,100,29.50,-9999.0,SE,5.8,-,N/A,Snow,Light Snow,130,2014-03-02 17:20:00
6:50 PM,32.0,32.0,100,29.50,3.7,SE,5.8,-,N/A,Snow,Light Snow,130,2014-03-02 17:50:00
7:00 PM,32,32,100,,4,SE,4.5,,,Snow,Light Snow,130,2014-03-02 18:00:00
7:20 PM,32.0,32.0,100,29.50,5.0,SE,5.8,-,N/A,Rain,Rain,130,2014-03-02 18:20:00
7:50 PM,32.0,32.0,100,29.50,4.3,SE,6.9,-,N/A,Rain,Rain,130,2014-03-02 18:50:00
8:00 PM,32,32,100,,3,SE,2.2,,,,,130,2014-03-02 19:00:00
8:20 PM,32.0,32.0,100,29.50,4.3,ESE,4.6,-,N/A,Rain,Rain,120,2014-03-02 19:20:00
8:50 PM,32.0,32.0,100,29.50,4.3,ESE,4.6,-,N/A,,Light Drizzle,120,2014-03-02 19:50:00
9:00 PM,32,32,100,,2,East,2.2,,,,,100,2014-03-02 20:00:00
9:20 PM,32.0,32.0,100,29.50,2.8,ESE,4.6,-,N/A,,Drizzle,120,2014-03-02 20:20:00
9:50 PM,32.0,32.0,100,29.50,3.7,ESE,3.5,-,N/A,Snow,Light Snow,110,2014-03-02 20:50:00
10:00 PM,32,32,100,,4,ESE,2.2,,,Snow,Light Snow,110,2014-03-02 21:00:00
10:20 PM,32.0,32.0,100,29.50,3.7,East,3.5,-,N/A,Snow,Light Snow,100,2014-03-02 21:20:00
10:50 PM,32.0,32.0,100,29.50,2.5,Variable,2.3,-,N/A,Snow,Light Snow,0,2014-03-02 21:50:00
11:00 PM,32,32,100,,1,SE,2.2,,,,,130,2014-03-02 22:00:00
11:20 PM,32.0,32.0,100,29.50,3.7,Variable,2.3,-,N/A,Snow,Light Snow,0,2014-03-02 22:20:00
11:50 PM,32.0,32.0,100,29.50,5.0,East,3.5,-,N/A,Snow,Light Snow,80,2014-03-02 22:50:00